Zurück zum Katalog

FENGYUN 1C DEB

AktivPO
NORAD 30171·DEBRIS·🇨🇳 China

Gestartet May 10, 1999 von Taiyuan Satellite Launch Center

Loading…

Nächste Überflüge (nächste 24 Stunden)

TLE

AktuellSource: Space-Track

Epoche: Sep 14, 2026, 01:09 UTC

1 30171U 99025UC  26257.04850358  .00000503  00000-0  33683-3 0  9996
2 30171  98.3738  95.8320 0184179 216.0341 142.8293 13.97026667  1069

Verfolge FENGYUN 1C DEB in Echtzeit mit AllMySat

Download on the App Store